Terminal Aerodrome Forecast
Issued by NWS

Home | Current Version | Previous Version | Text Only | Print | Product List | Glossary On
Versions: 1 2 3 4 5 6 7 8 9 10 11 12 13
000
FTUS43 KFGF 010500
TAFDVL
TAF
KDVL 010522Z 0106/0206 17019G25KT P6SM BKN200
     FM011500 17023G29KT P6SM BKN250
     FM012300 16013KT P6SM BKN250
      AMD LTD TO CLD VIS AND WIND=

USA.gov is the U.S. government's official web portal to all federal, state and local government web resources and services.